Okean

operational
NORAD ID: 23317 Int'l Des: 1994-066 Owner: RGMS/YUZHUA Country: RU
LEOCIRCULARPOLAR

关于 Okean

正在加载描述...

实时位置

正在加载3D地球...

即将过境

高度历史

Altitude vs Time

uPlot chart will show altitude changes over time

两行轨道根数

1 23317U 94066A 26063.30866603 .00003572 00000-0 30886-3 0 9995
2 23317 82.5379 355.1517 0014647 267.5797 92.3749 14.96851264699648
Epoch: Mar 4, 2026 • Age: 19 hours

当前状态

高度 598.0 km
速度 7.56 km/s
星下点 69.34°N, 65.02°E
发射日期 Oct 11, 1994
运行时间 31.3 years
类型 other

技术详情

分类 Payload
质量 1904.00 kg
干质量 1904.00 kg
总质量 1904.00 kg
长度 5.00 m
直径 2.40 m
跨度 21.50 m
形状 Cyl + 2 Pan + Ant
制造商 YUZHUA
平台类型 Okean
阶段状态 In Orbit
所有者/国家 RGMS/YUZHUA/RU

大型星座

Loading constellations...